Theta_e
290 290 289 290 290 290 290 289 286 282 284 282 283 290 292 292 291 289 289 292 294 295 295 296 297 298 298 300 300 301 303 304 305 306 307 307 309 311
289 289 289 289 290 290 290 290 290 287 283 288 289 290 290 289 289 288 288 290 292 293 293 295 296 296 296 297 298 299 301 303 304 305 305 306 308 311
289 288 288 289 289 289 290 290 289 289 285 287 288 289 287 287 286 285 287 287 289 292 292 292 293 293 295 295 296 297 299 302 305 304 304 304 306 310
287 287 287 289 288 289 289 288 288 288 286 283 286 286 286 287 287 287 286 286 288 290 292 291 292 291 294 294 294 295 296 298 301 302 302 303 304 309
287 287 287 288 287 287 287 286 287 287 287 284 285 285 286 287 284 286 283 281 286 288 290 290 290 290 292 293 293 293 293 295 296 297 301 303 305 307
285 285 287 287 287 286 286 285 286 285 285 285 285 285 285 286 285 283 282 280 285 284 286 288 288 288 290 292 292 291 292 293 294 294 295 297 299 300
282 285 287 286 285 285 285 284 284 284 284 285 284 283 283 282 281 282 281 282 285 284 281 286 286 285 285 289 290 291 291 291 291 291 292 292 293 295
282 281 283 282 286 286 286 286 286 284 283 283 282 281 282 282 281 280 280 280 280 282 280 285 285 284 284 286 290 291 291 290 290 290 290 290 290 291
282 282 282 284 283 282 285 285 285 286 285 282 281 282 280 281 280 279 279 279 280 283 281 282 279 283 284 283 288 289 291 290 289 289 288 289 289 289
280 280 282 282 282 282 282 283 283 283 282 281 280 279 279 280 281 280 279 279 281 282 282 281 277 276 283 282 286 287 287 288 289 288 287 286 286 287
277 277 279 279 283 284 281 281 281 283 284 285 284 283 282 282 282 278 273 273 281 277 278 280 282 281 276 279 280 283 283 284 286 286 286 285 283 283
277 275 281 280 284 284 276 280 278 281 280 273 274 278 279 277 281 279 277 274 276 281 276 278 281 281 280 273 276 276 277 280 282 284 285 285 283 279
279 277 278 284 284 284 283 277 280 277 274 270 270 271 272 272 277 278 277 276 273 278 277 278 280 281 281 278 271 274 275 274 275 276 281 283 284 281
280 279 278 284 284 284 280 282 281 277 269 270 271 270 268 268 269 273 273 275 273 274 274 275 278 280 273 268 269 271 272 274 273 273 275 278 280 282
281 281 284 284 284 282 283 280 275 270 270 270 268 268 268 269 268 268 276 276 275 269 271 271 278 276 272 267 267 268 268 271 272 272 273 274 274 275
283 280 281 281 280 277 274 275 272 271 272 270 268 268 268 268 268 268 269 270 278 272 273 274 272 272 273 271 271 267 270 266 268 269 272 273 274 274
278 276 275 273 271 270 269 270 269 268 270 268 268 267 268 268 268 268 273 271 273 272 272 271 271 274 273 269 268 267 266 266 267 266 267 270 272 272
277 276 275 274 273 271 272 271 270 271 268 267 266 266 266 267 267 267 267 266 265 264 265 265 266 271 266 270 273 265 264 263 264 264 264 264 268 270
277 278 277 275 274 273 274 274 272 271 266 267 266 266 266 265 266 266 266 265 264 263 263 263 263 274 276 261 265 276 265 263 261 263 263 262 262 267
280 279 278 277 275 275 274 274 271 268 265 267 266 264 264 265 264 264 264 264 263 262 261 260 260 260 264 265 261 266 276 263 260 258 259 258 263 274
281 279 280 278 276 275 275 274 273 270 266 267 264 263 263 263 262 262 261 261 262 261 261 259 261 263 258 260 261 263 265 276 268 260 257 256 256 257
281 280 279 277 276 275 274 274 270 267 267 266 266 265 263 263 262 261 261 260 260 260 260 260 259 258 259 259 257 259 263 266 270 275 275 270 261 259
283 282 280 277 275 274 274 273 271 268 267 266 266 265 264 262 261 262 260 259 261 260 258 258 258 258 257 258 259 258 260 259 259 261 264 277 277 277
Wind_Speed
3 4 3 2 2 1 0 1 0 3 3 4 3 5 7 8 9 9 10 16 20 23 25 26 28 28 30 31 32 34 33 31 28 26 23 21 21 23
3 3 3 3 2 2 2 1 2 1 3 2 3 7 9 8 9 9 10 13 18 21 23 24 26 29 30 31 34 36 35 33 29 23 20 18 18 20
4 4 4 3 3 2 1 1 1 2 5 5 3 6 7 10 9 5 7 7 8 18 21 22 26 29 31 32 35 37 36 35 23 17 15 13 13 18
6 6 5 3 4 3 2 2 1 1 2 7 6 4 4 7 6 7 7 6 5 14 21 21 24 28 31 32 35 38 38 36 29 20 14 11 11 14
6 6 5 4 3 3 2 1 1 1 2 3 6 2 3 4 6 4 7 5 4 12 13 20 22 26 30 32 34 35 37 37 36 34 25 17 16 16
4 4 4 4 4 3 2 1 1 2 2 3 4 4 3 3 4 7 8 4 4 3 6 12 16 22 27 30 30 31 34 37 37 36 35 32 29 30
3 5 5 3 2 2 1 1 2 1 2 3 4 3 4 5 7 6 5 6 1 5 3 7 6 9 12 21 22 29 32 35 38 37 37 35 34 34
5 4 4 5 5 3 2 3 4 2 1 2 2 4 4 3 4 5 5 4 3 2 4 6 5 8 10 11 32 31 31 32 34 36 38 37 37 36
5 5 4 3 4 3 1 1 2 2 2 2 4 3 5 5 5 5 4 2 2 3 2 2 3 8 8 10 28 32 32 30 30 32 33 36 37 35
4 5 5 5 4 3 1 1 1 2 2 1 2 3 2 3 3 5 5 5 3 1 3 2 3 3 6 8 25 27 30 33 33 31 30 30 32 38
4 4 4 4 5 3 2 1 2 2 2 4 4 3 3 5 6 3 3 3 1 1 6 2 3 2 3 8 9 23 26 28 31 32 32 29 27 28
3 4 8 6 7 5 4 2 1 1 2 3 3 2 1 3 6 4 4 2 2 0 4 4 3 2 1 2 8 9 9 22 24 28 31 31 27 11
5 4 4 11 9 7 6 4 2 2 2 1 2 1 2 2 3 3 4 3 2 2 4 3 2 2 2 1 3 8 8 9 9 12 22 28 31 23
5 4 4 11 11 8 5 5 2 1 0 1 1 0 1 1 2 1 2 2 1 0 4 1 2 1 2 2 2 4 6 8 8 9 9 16 23 27
4 7 10 11 10 6 8 5 3 2 1 1 1 1 2 3 2 2 2 2 0 3 4 3 1 3 4 3 2 3 3 6 7 7 8 10 10 9
9 5 7 7 7 6 3 4 2 2 3 2 2 2 1 1 1 1 1 1 1 3 5 7 6 5 6 6 5 3 5 3 5 5 5 8 8 8
8 3 2 2 3 2 2 3 3 2 3 3 2 1 0 1 0 0 1 2 3 2 2 4 6 10 9 4 6 4 3 3 4 3 5 7 7 7
4 4 6 5 6 5 5 4 3 4 3 3 2 3 2 2 1 2 2 3 4 1 1 2 3 0 3 8 10 1 3 2 3 4 3 4 6 6
4 7 7 7 7 6 6 5 5 5 4 4 3 3 3 2 2 1 1 2 2 1 1 1 2 1 3 2 3 12 3 1 2 3 3 4 2 4
6 7 7 7 6 6 6 5 4 4 3 4 3 3 3 3 2 2 1 3 2 1 2 3 3 2 2 5 4 2 7 2 2 1 1 3 3 8
8 6 6 6 5 5 5 5 6 6 4 5 3 4 3 3 2 3 3 3 3 2 2 1 2 2 1 2 5 3 4 7 4 4 2 3 1 3
6 6 5 4 5 5 5 5 5 5 5 5 4 4 4 3 4 4 3 3 2 3 3 1 2 2 4 3 3 3 1 4 8 11 6 5 5 1
6 7 6 6 5 5 5 6 6 5 5 5 5 4 4 3 3 4 3 3 4 4 3 1 2 3 2 3 4 1 3 2 3 5 6 11 11 14
Wind_Direction
141 141 139 146 118 68 41 288 64 327 305 319 348 349 344 329 329 328 331 333 338 352 353 354 353 353 348 347 343 336 330 323 309 303 300 301 303 300
141 156 145 143 153 199 212 227 213 256 286 305 325 323 325 323 316 322 321 331 335 351 356 359 359 356 353 353 350 346 339 330 318 302 299 297 302 303
155 161 148 164 166 153 241 244 231 241 276 298 314 313 322 334 321 319 323 333 333 354 3 7 5 1 358 359 359 357 352 348 334 324 308 308 317 306
166 157 173 194 164 170 199 237 251 284 287 300 305 327 299 315 308 325 338 336 337 0 14 13 13 3 4 8 7 7 4 7 12 13 9 4 341 324
173 168 162 158 182 187 221 254 287 281 273 276 296 289 285 320 347 323 337 327 339 349 8 18 17 9 6 13 15 13 16 18 24 28 35 35 25 19
154 144 174 175 182 203 224 274 333 314 264 273 289 303 297 9 338 349 342 341 346 333 346 10 19 12 2 13 17 21 24 26 28 33 38 43 49 51
159 161 176 168 137 177 221 280 321 272 297 294 339 332 333 349 4 338 323 319 349 23 323 2 3 16 2 6 20 26 31 33 35 36 38 43 45 49
175 181 179 176 194 205 251 278 284 257 324 321 339 329 331 339 344 328 321 349 340 45 348 1 7 23 15 9 20 28 33 37 40 42 43 46 48 50
171 170 174 171 171 195 270 322 340 311 225 279 302 331 326 360 330 319 307 278 259 327 5 339 356 30 19 13 24 26 31 35 38 40 42 44 47 47
167 171 168 173 171 147 104 75 21 358 68 357 310 306 307 312 331 304 282 276 258 261 353 354 354 355 18 28 27 27 29 36 38 41 41 42 42 47
182 169 163 161 184 193 118 105 28 53 18 338 314 315 337 358 3 320 341 335 5 40 17 329 9 333 38 24 20 30 32 29 36 41 42 41 41 43
184 180 187 178 191 193 136 149 94 58 341 336 341 308 280 25 28 20 334 344 324 33 5 1 343 9 50 356 27 20 21 31 31 35 42 41 41 37
179 182 186 198 195 192 172 158 174 118 298 259 262 280 38 63 34 35 11 14 359 5 5 343 329 344 61 56 10 28 25 18 22 28 32 38 45 48
188 176 172 188 187 187 160 183 159 116 234 320 75 356 41 340 308 339 75 61 53 308 295 303 279 356 63 32 17 345 25 23 22 27 27 34 39 43
151 175 175 180 183 178 174 169 142 167 165 100 152 213 203 230 286 2 192 161 216 348 353 337 327 21 69 97 117 344 51 12 15 27 34 36 32 29
175 160 167 164 160 148 133 167 169 153 152 160 172 218 282 10 50 35 45 338 104 12 357 24 43 60 76 60 75 44 25 71 337 7 20 51 36 34
133 114 131 129 157 164 159 161 153 146 159 176 138 139 214 101 21 340 203 87 69 94 357 11 36 71 67 110 70 38 25 20 1 9 28 43 32 18
135 164 185 192 194 185 179 174 177 185 196 151 154 155 154 127 134 353 61 99 116 89 359 316 344 52 46 44 70 69 25 39 348 16 38 65 43 8
188 189 191 194 202 192 182 173 178 188 165 159 161 164 148 135 123 106 89 93 49 68 305 301 23 0 102 85 301 41 116 326 17 38 29 55 107 337
197 196 193 195 191 187 177 173 148 151 158 165 153 160 164 144 128 143 145 141 131 109 7 1 26 51 121 172 147 286 42 92 100 71 355 344 283 23
198 204 195 187 178 170 169 166 162 169 167 164 166 157 168 142 138 136 129 114 122 102 96 341 262 269 272 52 51 2 323 63 127 148 168 96 33 354
193 196 187 164 166 163 157 160 156 153 157 164 165 161 169 162 154 150 161 144 155 146 133 201 318 16 51 102 151 149 48 347 21 48 91 149 152 106
185 188 170 167 159 157 156 164 162 161 159 157 157 163 156 153 155 143 144 134 128 115 128 113 4 36 33 107 122 114 105 348 6 359 360 58 86 90